Карточка аэропорта UNOO

Внимание!
Информация на этой странице в стадии наполнения.
Если вы не увидели какой-то информации, или заметили неточность - пожалуйста сообщите нам!
Спасибо!
Команда RU-STAFF
Название аэропортаЦентральный
Название аэропорта (англ.)Tsentralny
Превышение312 ft. (95.1 m.)
Координаты54°58.02', 73°18.6'
Высота перехода900m
Эшелон переходаQFE>=733:FL50; QFE<733:FL60;
Коды ответчика5440-5457
Зона ОрВДНовосибирск РПИ (UNNT)
Данные METARUNOO 251130Z 21007MPS 9999 BKN040 26/14 Q1002 R25/CLRD60 NOSIG RMK QFE744
Проноз погоды (TAF)UNOO 251050Z 2512/2612 20006G14MPS 9999 SCT030CB BKN033 BECMG 2515/2517 17003G08MPS SCT030 BECMG 2605/2607 19003G10MPS BKN033CB
NOTAMshow/hide NOTAM
AWOS   TABLE

Информация о ВПП

ВПП Длина ВПП (м.) Покрытие Курс ВПП Частота ILS
072501Асфальтобетон65108.3
252501Асфальтобетон245110.1

Диспетчерские позиции

Позывной Наименование органа УВД Частота
UNOO_GNDОмск-Руление121.700
UNOO_TWRОмск-Старт119.000
UNOO_APPОмск-Подход131.200
UNOO_R_APPОмск-Круг119.050



Спутниковое изображение